Printer-friendly version

IAU Minor Planet Center

Minor Planet Center

MPEC 2009-M33 : 2009 MM1

The following Minor Planet Electronic Circular may be linked-to from your own Web pages, but must not otherwise be redistributed electronically.


Read MPEC 2009-M32


M.P.E.C. 2009-M33                                Issued 2009 June 24, 19:10 UT

     The Minor Planet Electronic Circulars contain information on unusual
         minor planets and routine data on comets.  They are published
   on behalf of Commission 20 of the International Astronomical Union by the
          Minor Planet Center, Smithsonian Astrophysical Observatory,
                          Cambridge, MA 02138, U.S.A.

             Prepared using the Tamkin Foundation Computer Network

                              MPC@CFA.HARVARD.EDU
          URL http://www.cfa.harvard.edu/iau/mpc.html  ISSN 1523-6714

                                   2009 MM1

Observations:
     K09M01M* C2009 06 23.60979 20 11 06.10 -41 43 22.8          19.9 V EM033E12
     K09M01M  C2009 06 23.61787 20 11 08.26 -41 43 41.8          20.4 V EM033E12
     K09M01M  C2009 06 23.62575 20 11 10.39 -41 44 01.0          19.6 V EM033E12
     K09M01M  C2009 06 23.63374 20 11 12.66 -41 44 19.5          20.4 V EM033E12
     K09M01M QC2009 06 23.64474 20 11 15.64 -41 44 45.0          19.7 R EM033E12
     K09M01M QC2009 06 23.67291 20 11 23.34 -41 45 50.9          19.7 R EM033E12
     K09M01M QC2009 06 23.71770 20 11 35.63 -41 47 33.2          19.8 R EM033E12
     K09M01M QC2009 06 23.72373 20 11 37.26 -41 47 46.5          19.6 R EM033E12
     K09M01M QC2009 06 24.61055 20 16 01.02 -42 21 35.6          19.6 R EM033E12
     K09M01M QC2009 06 24.61807 20 16 03.11 -42 21 53.4          19.9 R EM033E12

Observer details:
E12 Siding Spring Survey.  Observers G. J. Garradd, R. H. McNaught.  Measurers
    E. C. Beshore, A. Boattini, G. J. Garradd, A. R. Gibbs, A. D. Grauer,
    R. E. Hill, R. A. Kowalski, S. M. Larson, R. H. McNaught.  0.5-m Uppsala
    Schmidt + CCD.

Orbital elements:
2009 MM1                                                 Earth MOID = 0.2044 AU
Epoch 2009 June 18.0 TT = JDT 2455000.5                 MPC
M 353.00177              (2000.0)            P               Q
n   0.27629187     Peri.  223.50742     +0.40441624     +0.90296001
a   2.3346618      Node    70.83290     -0.79133797     +0.42512366
e   0.4892213      Incl.    8.84851     -0.45851033     +0.06271439
P   3.57           H   21.8           G   0.15           U   8
Residuals in seconds of arc
090623 E12  0.4+  0.2+    090623 E12  0.0   0.2+    090624 E12  0.1+  0.2+
090623 E12  0.2-  0.3+    090623 E12  0.1-  0.3-    090624 E12  0.1-  0.2-
090623 E12  0.6-  0.4-    090623 E12  0.2+  0.1-
090623 E12  0.3+  0.1-    090623 E12  0.1-  0.3+

Ephemeris:
2009 MM1                 a,e,i = 2.33, 0.49, 9                   q = 1.1925
Date    TT    R. A. (2000) Decl.     Delta      r     Elong.  Phase     V
2009 06 18    19 45.17   -37 59.3    0.233    1.224   150.7    24.0    20.2
2009 06 28    20 33.22   -44 24.3    0.217    1.204   146.8    27.5    20.1
2009 07 08    21 26.85   -49 02.7    0.216    1.194   142.0    31.6    20.2
2009 07 18    22 16.62   -51 11.1    0.224    1.194   138.4    34.4    20.4
2009 07 28    22 53.54   -51 11.9    0.241    1.203   137.1    35.0    20.6
2009 08 07    23 15.45   -49 46.6    0.264    1.223   137.9    33.8    20.8
2009 08 17    23 24.99   -47 25.3    0.292    1.251   140.2    31.2    20.9
2009 08 27    23 26.46   -44 20.1    0.328    1.287   143.1    28.1    21.2
2009 09 06    23 24.29   -40 39.5    0.371    1.331   145.4    25.5    21.4
2009 09 16    23 21.61   -36 36.1    0.426    1.379   146.0    24.1    21.8

Sonia Keys                   (C) Copyright 2009 MPC           M.P.E.C. 2009-M33

Read MPEC 2009-M32

Valid HTML 4.01!